2018-096M (43730 NORAD) Tracking and Keplerian Element Data

This shows tracking and keplerian element data for the satellite.

Feedback or suggestion? Click here.




ElementValue
Catalog43730
Name2018-096M
Epoch Orbit458
Epoch Day363.18597212
Epoch Year2018
RAAN68.2387
Inclination97.4852
Eccentricity0.0019218
Argument of Perigee217.2451
Mean Anonmoly142.7455
Mean Motion15.26437021
Decay Rate8.25E-06
L11 43730U 18096M 18363.18597212 .00000825 00000-0 34401-4 0 9998
L22 43730 97.4852 68.2387 0019218 217.2451 142.7455 15.26437021 4587

Live tracking and technical data element details for 2018-096M (NORAD 43730). 2018-096M can be tracked NOW for your location showing map with azimuth and elevation plus other details from your city location.

Track the satellite on the map from your city or location and see movement details for azimuth, elevation, latitude, longitude, range, height, and movement on the map or in text.







IsCatalogInMostPopularTable: catalog: 43730, numindb: 21
Update: records affected: 1



GetName: 43730 2018-096M

Hit Count: updated at: Fri, 18 Jan 2019 22:41:57 GMT